CYGFM02

Last updated on Fri Jul 11 2025 00:02:20 GMT+0000 (Coordinated Universal Time)

1 41886U 16078C 25191.53044776 .00008895 00000+0 18905-3 0 9998 2 41886 34.9455 313.8967 0010108 193.3518 166.6936 15.44135568476013
UTC large
Height (km)
Speed (km/s)
/
Latitude / Longitude
Inclination (degrees)
Orbital Period (minutes)
Azimuth
Elevation
Range (km)
Doppler Factor

Next 0 passes for location: London (51.5072 / 0.1276)

Sorry there are no passes over London.